When you browse on this site, cookies collect data to enhance your experience and personalize the content and advertising you see.
Visit our Privacy Policy to learn more. By continuing to use the site, you agree to this use of cookies and data.
  • In Portugal
  • List of Countries
  • For 7 days
  • Water Temperature
  • Satellite Maps
  • Weather Map
  • Weather Widgets
  • user-avatar
    Login

    Hourly Weather Sidi Bu-l-Abbas

    Today, 22 March, Friday

    Time Temperature Precipitation Wind Pressure Humidity
    00:00 +9°C° 0 mm 1 mps 724 mmHg 88%
    01:00 +9°C° 0 mm 1 mps 724 mmHg 89%
    02:00 +9°C° 0 mm 1 mps 724 mmHg 90%
    03:00 +9°C° 0 mm 1 mps 724 mmHg 90%
    04:00 +9°C° 0.1 mm 1 mps 724 mmHg 91%
    05:00 +9°C° 0.1 mm 1 mps 724 mmHg 92%
    06:00 +9°C° 0 mm 1 mps 724 mmHg 95%
    07:00 +9°C° 0 mm 2 mps 724 mmHg 89%
    08:00 +10°C° 0 mm 2 mps 725 mmHg 84%
    09:00 +11°C° 0 mm 3 mps 725 mmHg 79%
    10:00 +11°C° 0.1 mm 3 mps 725 mmHg 75%
    11:00 +12°C° 0.1 mm 4 mps 725 mmHg 70%
    12:00 +13°C° 0 mm 4 mps 725 mmHg 66%
    13:00 +13°C° 0.2 mm 4 mps 725 mmHg 67%
    14:00 +13°C° 0.2 mm 5 mps 725 mmHg 69%
    15:00 +13°C° 0.2 mm 5 mps 724 mmHg 70%
    16:00 +13°C° 0.1 mm 4 mps 724 mmHg 72%
    17:00 +12°C° 0.1 mm 4 mps 724 mmHg 75%
    18:00 +12°C° 0.1 mm 3 mps 724 mmHg 77%
    19:00 +12°C° 0 mm 2 mps 724 mmHg 82%
    20:00 +10°C° 0 mm 2 mps 724 mmHg 87%
    21:00 +10°C° 0 mm 1 mps 724 mmHg 92%
    22:00 +9°C° 0 mm 1 mps 724 mmHg 93%
    23:00 +7°C° 0 mm 0 mps 724 mmHg 95%

    Tomorrow, 23 March, Saturday

    Time Temperature Precipitation Wind Pressure Humidity
    00:00 +7°C° 0 mm 0 mps 724 mmHg 96%
    01:00 +6°C° 0 mm 0 mps 724 mmHg 95%
    02:00 +6°C° 0 mm 0 mps 724 mmHg 95%
    03:00 +6°C° 0 mm 0 mps 724 mmHg 95%
    04:00 +6°C° 0 mm 0 mps 723 mmHg 95%
    05:00 +5°C° 0 mm 0 mps 723 mmHg 96%
    06:00 +5°C° 0 mm 0 mps 723 mmHg 96%
    07:00 +7°C° 0 mm 0 mps 724 mmHg 89%
    08:00 +10°C° 0 mm 1 mps 724 mmHg 81%
    09:00 +12°C° 0 mm 2 mps 725 mmHg 73%
    10:00 +14°C° 0 mm 2 mps 725 mmHg 65%
    11:00 +15°C° 0 mm 2 mps 725 mmHg 56%
    12:00 +16°C° 0 mm 3 mps 725 mmHg 47%
    13:00 +17°C° 0 mm 3 mps 724 mmHg 44%
    14:00 +18°C° 0 mm 4 mps 723 mmHg 41%
    15:00 +19°C° 0 mm 4 mps 723 mmHg 38%
    16:00 +16°C° 0 mm 5 mps 723 mmHg 44%
    17:00 +15°C° 0 mm 5 mps 722 mmHg 51%
    18:00 +14°C° 0 mm 5 mps 722 mmHg 58%
    19:00 +13°C° 0 mm 4 mps 722 mmHg 67%
    20:00 +11°C° 0 mm 3 mps 722 mmHg 76%
    21:00 +10°C° 0 mm 2 mps 723 mmHg 85%
    22:00 +10°C° 0 mm 2 mps 722 mmHg 84%
    23:00 +10°C° 0 mm 2 mps 722 mmHg 84%

    Day after tomorrow, 24 March, Sunday

    Time Temperature Precipitation Wind Pressure Humidity
    00:00 +9°C° 0 mm 2 mps 722 mmHg 84%
    01:00 +10°C° 0 mm 2 mps 722 mmHg 77%
    02:00 +10°C° 0 mm 2 mps 722 mmHg 70%
    03:00 +12°C° 0 mm 1 mps 721 mmHg 63%
    04:00 +12°C° 0 mm 2 mps 721 mmHg 59%
    05:00 +12°C° 0 mm 2 mps 721 mmHg 56%
    06:00 +12°C° 0 mm 3 mps 721 mmHg 52%
    07:00 +13°C° 0.1 mm 3 mps 722 mmHg 51%
    08:00 +13°C° 0.1 mm 3 mps 722 mmHg 51%
    09:00 +14°C° 0.1 mm 3 mps 723 mmHg 50%
    10:00 +14°C° 0.3 mm 4 mps 723 mmHg 53%
    11:00 +15°C° 0.3 mm 5 mps 723 mmHg 55%
    12:00 +15°C° 0.3 mm 6 mps 723 mmHg 58%
    13:00 +14°C° 1.3 mm 6 mps 723 mmHg 61%
    14:00 +14°C° 1.3 mm 5 mps 722 mmHg 63%
    15:00 +14°C° 1.3 mm 5 mps 722 mmHg 66%
    16:00 +14°C° 0.1 mm 5 mps 722 mmHg 64%
    17:00 +14°C° 0.1 mm 5 mps 722 mmHg 63%
    18:00 +14°C° 0.1 mm 5 mps 721 mmHg 62%
    19:00 +13°C° 0 mm 5 mps 722 mmHg 64%
    20:00 +13°C° 0 mm 5 mps 722 mmHg 66%
    21:00 +12°C° 0 mm 5 mps 722 mmHg 68%
    22:00 +13°C° 0 mm 5 mps 722 mmHg 65%
    23:00 +13°C° 0 mm 5 mps 722 mmHg 62%

    25 March, Monday

    Time Temperature Precipitation Wind Pressure Humidity
    00:00 +13°C° 0 mm 5 mps 722 mmHg 59%
    01:00 +13°C° 0 mm 5 mps 721 mmHg 56%
    02:00 +13°C° 0 mm 5 mps 721 mmHg 54%
    03:00 +12°C° 0 mm 4 mps 721 mmHg 52%
    04:00 +12°C° 0 mm 4 mps 721 mmHg 51%
    05:00 +12°C° 0 mm 4 mps 721 mmHg 51%
    06:00 +12°C° 0 mm 5 mps 720 mmHg 50%
    07:00 +14°C° 0 mm 5 mps 721 mmHg 47%
    08:00 +16°C° 0 mm 5 mps 722 mmHg 44%
    09:00 +17°C° 0 mm 5 mps 722 mmHg 41%
    10:00 +20°C° 0 mm 6 mps 722 mmHg 37%
    11:00 +22°C° 0 mm 6 mps 722 mmHg 34%
    12:00 +24°C° 0 mm 6 mps 722 mmHg 30%
    13:00 +23°C° 0 mm 6 mps 721 mmHg 32%
    14:00 +23°C° 0 mm 7 mps 721 mmHg 33%
    15:00 +22°C° 0 mm 7 mps 720 mmHg 35%
    16:00 +22°C° 0 mm 6 mps 720 mmHg 37%
    17:00 +21°C° 0 mm 6 mps 719 mmHg 39%
    18:00 +20°C° 0 mm 5 mps 719 mmHg 41%
    19:00 +20°C° 0 mm 5 mps 719 mmHg 41%
    20:00 +19°C° 0 mm 5 mps 720 mmHg 41%
    21:00 +19°C° 0 mm 4 mps 720 mmHg 41%
    22:00 +17°C° 0 mm 5 mps 720 mmHg 42%
    23:00 +16°C° 0 mm 5 mps 720 mmHg 42%

    26 March, Tuesday

    Time Temperature Precipitation Wind Pressure Humidity
    00:00 +16°C° 0 mm 5 mps 720 mmHg 43%
    01:00 +15°C° 0 mm 5 mps 719 mmHg 43%
    02:00 +15°C° 0 mm 5 mps 719 mmHg 44%
    03:00 +15°C° 0 mm 5 mps 719 mmHg 44%
    04:00 +14°C° 0 mm 4 mps 719 mmHg 45%
    05:00 +14°C° 0 mm 4 mps 719 mmHg 47%
    06:00 +13°C° 0 mm 3 mps 719 mmHg 49%
    07:00 +15°C° 0 mm 4 mps 719 mmHg 48%
    08:00 +18°C° 0 mm 4 mps 719 mmHg 46%
    09:00 +19°C° 0 mm 5 mps 720 mmHg 45%
    10:00 +21°C° 0.1 mm 5 mps 720 mmHg 42%
    11:00 +22°C° 0.1 mm 6 mps 720 mmHg 38%
    12:00 +24°C° 0.1 mm 6 mps 720 mmHg 35%
    13:00 +26°C° 0 mm 7 mps 719 mmHg 31%
    14:00 +27°C° 0 mm 7 mps 719 mmHg 28%
    15:00 +28°C° 0 mm 8 mps 719 mmHg 24%
    16:00 +27°C° 0 mm 7 mps 719 mmHg 29%
    17:00 +24°C° 0 mm 6 mps 719 mmHg 34%
    18:00 +22°C° 0 mm 5 mps 719 mmHg 38%
    19:00 +21°C° 0 mm 5 mps 719 mmHg 38%
    20:00 +20°C° 0 mm 5 mps 720 mmHg 38%
    21:00 +20°C° 0 mm 5 mps 720 mmHg 38%
    22:00 +19°C° 0 mm 5 mps 720 mmHg 39%
    23:00 +19°C° 0 mm 5 mps 720 mmHg 40%

    27 March, Wednesday

    Time Temperature Precipitation Wind Pressure Humidity
    00:00 +18°C° 0 mm 4 mps 720 mmHg 41%
    01:00 +18°C° 0.2 mm 4 mps 719 mmHg 47%
    02:00 +17°C° 0.2 mm 3 mps 719 mmHg 53%
    03:00 +17°C° 0.2 mm 3 mps 719 mmHg 58%
    04:00 +16°C° 0.6 mm 2 mps 719 mmHg 62%
    05:00 +15°C° 0.6 mm 2 mps 719 mmHg 66%
    06:00 +15°C° 0.6 mm 2 mps 719 mmHg 69%
    07:00 +16°C° 0.2 mm 3 mps 719 mmHg 64%
    08:00 +18°C° 0.2 mm 4 mps 720 mmHg 59%
    09:00 +19°C° 0.2 mm 4 mps 720 mmHg 54%
    10:00 +21°C° 0 mm 5 mps 720 mmHg 48%
    11:00 +23°C° 0 mm 6 mps 720 mmHg 42%
    12:00 +26°C° 0 mm 7 mps 720 mmHg 35%
    13:00 +24°C° 0.1 mm 6 mps 719 mmHg 38%
    14:00 +24°C° 0.1 mm 6 mps 719 mmHg 42%
    15:00 +23°C° 0.1 mm 5 mps 718 mmHg 45%
    16:00 +22°C° 0.1 mm 5 mps 718 mmHg 48%
    17:00 +21°C° 0.1 mm 4 mps 718 mmHg 51%
    18:00 +20°C° 0.1 mm 4 mps 718 mmHg 54%
    19:00 +19°C° 1.1 mm 3 mps 719 mmHg 61%
    20:00 +17°C° 1.1 mm 3 mps 719 mmHg 69%
    21:00 +16°C° 1.1 mm 3 mps 719 mmHg 76%
    22:00 +16°C° 0.2 mm 3 mps 719 mmHg 76%
    23:00 +14°C° 0.2 mm 3 mps 720 mmHg 76%
    Show more